This demonstration page uses our WeatherBlox Daily Observations layout. Learn more.

Left ArrowRight Arrow

39.51506, -84.39828

Hourly Observations for August 10, 2020

Temp ( °F °C ) Dew Point ( °F °C ) Humidity (%) Winds ( mph kmh ) Pressure ( in mb ) Visibility ( mi km ) Precip ( " mm )
12:15 am 00:15 Clear 69 20.5 69 20.3 99 99 Calm 30.07 1018 10 16.0934 0 0
12:35 am 00:35 Clear 68 20.2 68 19.8 98 98 Calm 30.06 1018 10 16.0934 0 0
12:55 am 00:55 Clear 68 19.8 67 19.6 99 99 Calm 30.07 1018 10 16.0934 0 0
1:15 am 01:15 Clear 68 19.9 68 19.8 99 99 Calm 30.06 1018 7 11.26538 0 0
1:35 am 01:35 Clear with Mist and Fog 67 19.3 67 19.2 99 99 Calm 30.07 1018 5 8.0467 0 0
1:55 am 01:55 Clear with Mist and Fog 68 20 66 19 94 94 Calm 30.06 1018 7 11.26538 0 0
2:15 am 02:15 Clear 68 20 N/A N/A Calm 30.06 1018 7 11.26538 0 0
2:35 am 02:35 Clear with Mist and Fog 68 20 68 20 100 100 Calm 30.06 1018 7 11.26538 0 0
2:55 am 02:55 Hazy 66 19 N/A N/A Calm 30.07 1018 5 8.0467 0 0
3:15 am 03:15 Clear with Mist and Fog 66 19 N/A N/A Calm 30.07 1018 3.5 5.63269 0 0
3:35 am 03:35 Mostly Cloudy with Mist and Fog 68 20 N/A N/A Calm 30.06 1018 1 1.60934 0 0
3:55 am 03:55 Mostly Cloudy with Fog 66 19 N/A N/A Calm 30.07 1018 0.5 0.80467 0 0
4:15 am 04:15 Hazy 64 18 N/A N/A Calm 30.07 1018 4 6.43736 0 0
4:35 am 04:35 Mostly Cloudy with Fog 66 19 N/A N/A Calm 30.07 1018 0.5 0.80467 0 0
4:55 am 04:55 Clear with Mist and Fog 66 19 N/A N/A Calm 30.07 1018 3.5 5.63269 0 0
5:15 am 05:15 Clear with Mist and Fog 66 19 N/A N/A Calm 30.07 1018 3 4.82802 0 0
5:35 am 05:35 Clear with Mist and Fog 64 18 N/A N/A Calm 30.06 1018 2.5 4.02335 0 0
5:55 am 05:55 Clear with Mist and Fog 64 18 N/A N/A Calm 30.06 1018 4 6.43736 0 0
6:15 am 06:15 Mostly Cloudy with Fog 64 18 N/A N/A Calm 30.05 1018 0.25 0.402335 0 0
6:35 am 06:35 Clear with Mist and Fog 64 18 N/A N/A Calm 30.05 1018 2 3.21868 0 0
6:55 am 06:55 Mostly Cloudy with Mist and Fog 64 18 N/A N/A Calm 30.05 1018 1.5 2.41401 0 0
7:15 am 07:15 Mostly Cloudy with Mist and Fog 64 18 N/A N/A Calm 30.05 1018 1 1.60934 0 0
7:35 am 07:35 Sunny with Mist and Fog 64 18 N/A N/A Calm 30.06 1018 2.5 4.02335 0 0
7:55 am 07:55 Sunny with Mist and Fog 68 20 N/A N/A Calm 30.05 1018 2.5 4.02335 0 0
8:15 am 08:15 Sunny with Mist and Fog 70 21 N/A N/A Calm 30.06 1018 3 4.82802 0 0
8:35 am 08:35 Sunny with Nearby Thunderstorms 71 21.5 70 21.3 99 99 Calm 30.05 1018 7 11.26538 0 0
8:55 am 08:55 Sunny 73 22.9 71 21.4 91 91 SW 5 7 30.07 1018 10 16.0934 0 0
9:15 am 09:15 Sunny with Nearby Thunderstorms 75 24 71 21.8 88 88 SW 9 15 30.07 1018 10 16.0934 0 0
9:35 am 09:35 Sunny 76 24.7 71 21.8 84 84 SW 10 17 30.06 1018 10 16.0934 0 0
9:55 am 09:55 Partly Cloudy 78 25.3 71 21.9 82 82 SW 12 19 30.05 1018 10 16.0934 0 0
10:15 am 10:15 Partly Cloudy 77 24.8 71 21.9 84 84 WSW 7 11 30.06 1018 10 16.0934 0 0
10:35 am 10:35 Cloudy 76 24.2 71 21.7 86 86 WSW 7 11 30.05 1018 10 16.0934 0 0
10:55 am 10:55 Sunny 76 24.2 72 22 88 88 SW 5 7 30.05 1018 10 16.0934 0 0
11:15 am 11:15 Sunny 76 24.2 72 22 88 88 WSW 7 11 30.05 1018 10 16.0934 0 0
11:35 am 11:35 Partly Cloudy 75 24.1 72 22 88 88 SSW 7 11 30.05 1017 10 16.0934 0 0
11:55 am 11:55 Sunny 76 24.3 72 22.2 88 88 SSW 10 17 30.03 1017 10 16.0934 0 0
12:15 pm 12:15 Sunny 75 24 72 22 89 89 SW 6 9 30.04 1017 10 16.0934 0 0
12:35 pm 12:35 Partly Cloudy with Light Rain 75 24.1 73 22.5 91 91 SSW 3 6 30.04 1017 10 16.0934 0 0
12:55 pm 12:55 Partly Cloudy 76 24.6 73 22.5 88 88 W 5 7 30.03 1017 10 16.0934 0 0
1:15 pm 13:15 Sunny 77 25 72 22.3 85 85 Calm 30.02 1017 10 16.0934 0 0
1:35 pm 13:35 Partly Cloudy 79 26.1 73 22.7 82 82 SSE 3 6 30.01 1016 10 16.0934 0 0
1:55 pm 13:55 Partly Cloudy 82 27.6 73 22.7 75 75 SSE 5 7 30.01 1016 10 16.0934 0 0
2:15 pm 14:15 Partly Cloudy 82 28 72 22.4 72 72 SSE 5 7 30 1016 10 16.0934 0 0
2:35 pm 14:35 Sunny 83 28.4 72 22.2 69 69 S 10 17 30 1016 10 16.0934 0 0
2:55 pm 14:55 Partly Cloudy 83 28.4 71 21.9 68 68 SSW 7 11 29.99 1015 10 16.0934 0 0
3:15 pm 15:15 Partly Cloudy 83 28.6 73 22.6 70 70 S 6 9 29.98 1015 10 16.0934 0 0
3:35 pm 15:35 Sunny 84 29.1 72 22.4 67 67 S 10 17 29.96 1015 10 16.0934 0 0
3:55 pm 15:55 Sunny 85 29.4 71 21.7 63 63 S 7 11 29.95 1014 10 16.0934 0 0
4:15 pm 16:15 Partly Cloudy 86 29.8 71 21.7 62 62 S 10 17 29.93 1014 10 16.0934 0 0
4:35 pm 16:35 Sunny 86 30.2 71 21.9 61 61 SSW 10 17 29.93 1014 10 16.0934 0 0
4:55 pm 16:55 Sunny 87 30.3 70 21.2 58 58 S 10 17 29.91 1013 10 16.0934 0 0
5:15 pm 17:15 Partly Cloudy 85 29.7 68 20.1 56 56 SSW 13 20 29.91 1013 10 16.0934 0 0
5:35 pm 17:35 Partly Cloudy 86 29.9 69 20.8 58 58 S 9 15 29.91 1013 10 16.0934 0 0
5:55 pm 17:55 Partly Cloudy 85 29.6 69 20.7 59 59 S 10 17 29.91 1013 10 16.0934 0 0
6:15 pm 18:15 Sunny 85 29.4 69 20.7 60 60 SSW 12 19 29.91 1013 10 16.0934 0 0
6:35 pm 18:35 Sunny 84 29.1 69 20.7 61 61 SW 9 15 29.9 1013 10 16.0934 0 0
6:55 pm 18:55 Partly Cloudy 85 29.2 70 21.2 62 62 SW 8 13 29.9 1013 10 16.0934 0 0
7:15 pm 19:15 Sunny 84 28.9 72 22.1 67 67 SW 9 15 29.9 1013 10 16.0934 0 0
7:35 pm 19:35 Mostly Cloudy 83 28.2 72 22.3 70 70 WSW 6 9 29.91 1013 10 16.0934 0 0
7:55 pm 19:55 Mostly Cloudy 82 27.9 72 22.2 71 71 WSW 6 9 29.91 1013 10 16.0934 0 0
8:15 pm 20:15 Mostly Cloudy 80 26.8 72 22.3 76 76 Calm 29.91 1013 10 16.0934 0 0
8:35 pm 20:35 Mostly Cloudy 79 26.1 73 22.6 81 81 SW 3 6 29.91 1013 10 16.0934 0 0
8:55 pm 20:55 Cloudy 79 25.9 73 22.5 82 82 SW 6 9 29.92 1013 10 16.0934 0 0
9:15 pm 21:15 Cloudy 79 26.3 73 22.5 80 80 SW 5 7 29.92 1013 10 16.0934 0 0
9:35 pm 21:35 Cloudy with Light Rain 79 26.1 73 22.6 81 81 WSW 6 9 29.93 1014 10 16.0934 0 0
9:55 pm 21:55 Cloudy with Light Rain 77 24.9 74 23.5 92 92 WNW 18 30 29.97 1015 10 16.0934 0 0
10:15 pm 22:15 Cloudy with Heavy Thunderstorms 70 20.9 68 20.2 96 96 NNE 10 17 30 1016 4 6.43736 0 0
10:35 pm 22:35 Cloudy with Light Thunderstorms 69 20.8 68 20.2 96 96 N 3 6 30 1016 10 16.0934 0 0
10:55 pm 22:55 Cloudy with Light Rain 69 20.8 68 20.2 96 96 Calm 30.01 1016 5 8.0467 0 0
11:15 pm 23:15 Cloudy with Nearby Thunderstorms 69 20.8 69 20.4 98 98 Calm 30.01 1016 10 16.0934 0 0
11:35 pm 23:35 Cloudy 70 20.9 69 20.5 98 98 Calm 30.01 1016 10 16.0934 0 0
11:55 pm 23:55 Cloudy with Light Rain 69 20.7 69 20.5 99 99 WSW 3 6 30.02 1017 10 16.0934 0 0

Powered by AerisWeather